Tracking 30685 objects as of 17-Jun-2025
HD Live streaming from Space Station
objects crossing your sky now

NOAA 16 DEB

Track NOAA 16 DEB now!
10-day predictions


NORAD ID: 41402
Int'l Code: 2000-055KF
Perigee: 823.0 km
Apogee: 865.5 km
Inclination: 98.7 °
Period: 101.7 minutes
Semi major axis: 7215 km
RCS: Unknown
Launch date: September 21, 2000
Source: United States (US)
Launch site: AIR FORCE WESTERN TEST RANGE (AFWTR)

Note: This is SATELLITE DEBRIS
Your satellite tracking list
Your tracking list is empty




NASA's NSSDC Master Catalog

Two Line Element Set (TLE):
1 41402U 00055KF  25164.94075230  .00003774  00000-0  19076-2 0  9995
2 41402  98.7024 196.7721 0029490 219.8717 140.0291 14.16525823480191
Source of the keplerian elements: AFSPC